Time,TemperatureF,DewpointF,PressureIn,WindDirection,WindDirectionDegrees,WindSpeedMPH,WindSpeedGustMPH,Humidity,HourlyPrecipIn,Conditions,Clouds,dailyrainin,SoftwareType,DateUTC
2013-01-29 00:02:00,31.0,-99.9,30.11,West,275,6.0,12.0,0,-99.99,,,-99.99,,2013-01-29 08:02:00,
2013-01-29 00:11:00,31.0,-99.9,30.11,WNW,300,3.0,9.0,0,-99.99,,,-99.99,,2013-01-29 08:11:00,
2013-01-29 00:21:00,31.0,-99.9,30.11,WNW,300,3.0,9.0,0,-99.99,,,-99.99,,2013-01-29 08:21:00,
2013-01-29 00:32:00,31.0,-99.9,30.11,WNW,300,3.0,9.0,0,-99.99,,,-99.99,,2013-01-29 08:32:00,
2013-01-29 00:42:00,31.0,-99.9,30.11,WNW,300,3.0,10.0,0,-99.99,,,-99.99,,2013-01-29 08:42:00,
2013-01-29 00:52:00,31.0,-99.9,30.11,WNW,300,3.0,10.0,0,-99.99,,,-99.99,,2013-01-29 08:52:00,
2013-01-29 01:02:00,31.0,-99.9,30.11,NW,305,5.0,12.0,0,-99.99,,,-99.99,,2013-01-29 09:02:00,
2013-01-29 01:11:00,31.0,-99.9,30.12,NW,305,3.0,12.0,0,-99.99,,,-99.99,,2013-01-29 09:11:00,
2013-01-29 01:22:00,31.0,-99.9,30.12,NNW,330,12.0,13.0,0,-99.99,,,-99.99,,2013-01-29 09:22:00,
2013-01-29 01:32:00,31.0,-99.9,30.12,NNW,330,12.0,13.0,0,-99.99,,,-99.99,,2013-01-29 09:32:00,
2013-01-29 01:42:00,31.0,-99.9,30.12,WNW,300,5.0,15.0,0,-99.99,,,-99.99,,2013-01-29 09:42:00,
2013-01-29 01:52:00,31.0,-99.9,30.12,WNW,300,5.0,15.0,0,-99.99,,,-99.99,,2013-01-29 09:52:00,
2013-01-29 02:02:00,31.0,-99.9,30.13,West,280,5.0,12.0,0,-99.99,,,-99.99,,2013-01-29 10:02:00,
2013-01-29 02:11:00,31.0,-99.9,30.12,NW,315,5.0,12.0,0,-99.99,,,-99.99,,2013-01-29 10:11:00,
2013-01-29 02:22:00,31.0,-99.9,30.13,NW,325,5.0,8.0,0,-99.99,,,-99.99,,2013-01-29 10:22:00,
2013-01-29 02:32:00,31.0,-99.9,30.13,NW,325,5.0,8.0,0,-99.99,,,-99.99,,2013-01-29 10:32:00,
2013-01-29 02:42:00,31.0,-99.9,30.14,NNW,330,3.0,10.0,0,-99.99,,,-99.99,,2013-01-29 10:42:00,
2013-01-29 02:52:00,31.0,-99.9,30.14,NNW,330,3.0,10.0,0,-99.99,,,-99.99,,2013-01-29 10:52:00,
2013-01-29 03:02:00,31.0,-99.9,30.14,NW,305,6.0,12.0,0,-99.99,,,-99.99,,2013-01-29 11:02:00,
2013-01-29 03:12:00,31.0,-99.9,30.14,NNW,330,5.0,10.0,0,-99.99,,,-99.99,,2013-01-29 11:12:00,
2013-01-29 03:22:00,31.0,-99.9,30.14,NW,305,10.0,16.0,0,-99.99,,,-99.99,,2013-01-29 11:22:00,
2013-01-29 03:32:00,31.0,-99.9,30.14,NW,305,10.0,16.0,0,-99.99,,,-99.99,,2013-01-29 11:32:00,
2013-01-29 03:42:00,31.0,-99.9,30.14,NW,305,3.0,12.0,0,-99.99,,,-99.99,,2013-01-29 11:42:00,
2013-01-29 03:53:00,31.0,-99.9,30.14,NW,310,3.0,9.0,0,-99.99,,,-99.99,,2013-01-29 11:53:00,
2013-01-29 04:03:00,31.0,-99.9,30.14,NW,310,3.0,9.0,0,-99.99,,,-99.99,,2013-01-29 12:03:00,
2013-01-29 04:12:00,31.0,-99.9,30.15,NNW,330,2.0,7.0,0,-99.99,,,-99.99,,2013-01-29 12:12:00,
2013-01-29 04:22:00,31.0,-99.9,30.16,WNW,300,2.0,7.0,0,-99.99,,,-99.99,,2013-01-29 12:22:00,
2013-01-29 04:33:00,31.0,-99.9,30.16,WNW,300,2.0,7.0,0,-99.99,,,-99.99,,2013-01-29 12:33:00,
2013-01-29 04:43:00,31.0,-99.9,30.16,WNW,300,2.0,7.0,0,-99.99,,,-99.99,,2013-01-29 12:43:00,
2013-01-29 04:53:00,31.0,-99.9,30.15,NW,320,6.0,9.0,0,-99.99,,,-99.99,,2013-01-29 12:53:00,
2013-01-29 05:02:00,31.0,-99.9,30.15,WNW,285,12.0,16.0,0,-99.99,,,-99.99,,2013-01-29 13:02:00,
2013-01-29 05:12:00,31.0,-99.9,30.16,NW,315,6.0,14.0,0,-99.99,,,-99.99,,2013-01-29 13:12:00,
2013-01-29 05:23:00,31.0,-99.9,30.16,NW,315,6.0,14.0,0,-99.99,,,-99.99,,2013-01-29 13:23:00,
2013-01-29 05:32:00,31.0,-99.9,30.16,NNW,330,2.0,7.0,0,-99.99,,,-99.99,,2013-01-29 13:32:00,
2013-01-29 05:43:00,31.0,-99.9,30.16,NNW,335,3.0,8.0,0,-99.99,,,-99.99,,2013-01-29 13:43:00,
2013-01-29 05:53:00,31.0,-99.9,30.16,NNW,335,3.0,8.0,0,-99.99,,,-99.99,,2013-01-29 13:53:00,
2013-01-29 06:02:00,32.0,-99.9,30.17,NW,310,3.0,12.0,0,-99.99,,,-99.99,,2013-01-29 14:02:00,
2013-01-29 06:12:00,32.0,-99.9,30.18,NW,315,2.0,7.0,0,-99.99,,,-99.99,,2013-01-29 14:12:00,
2013-01-29 06:22:00,32.0,-99.9,30.18,NNW,330,3.0,12.0,0,-99.99,,,-99.99,,2013-01-29 14:22:00,
2013-01-29 06:33:00,32.0,-99.9,30.18,NNW,330,3.0,12.0,0,-99.99,,,-99.99,,2013-01-29 14:33:00,
2013-01-29 06:43:00,32.0,-99.9,30.19,NW,310,2.0,8.0,0,-99.99,,,-99.99,,2013-01-29 14:43:00,
2013-01-29 06:53:00,32.0,-99.9,30.19,NW,310,2.0,8.0,0,-99.99,,,-99.99,,2013-01-29 14:53:00,
2013-01-29 07:03:00,32.0,-99.9,30.19,NW,305,2.0,12.0,0,-99.99,,,-99.99,,2013-01-29 15:03:00,
2013-01-29 07:12:00,32.0,-99.9,30.19,NW,320,2.0,8.0,0,-99.99,,,-99.99,,2013-01-29 15:12:00,
2013-01-29 07:22:00,32.0,-99.9,30.20,NW,320,3.0,10.0,0,-99.99,,,-99.99,,2013-01-29 15:22:00,
2013-01-29 07:33:00,32.0,-99.9,30.20,NW,320,3.0,10.0,0,-99.99,,,-99.99,,2013-01-29 15:33:00,
2013-01-29 07:43:00,32.0,-99.9,30.21,West,280,6.0,12.0,0,-99.99,,,-99.99,,2013-01-29 15:43:00,
2013-01-29 07:53:00,32.0,-99.9,30.21,West,280,6.0,12.0,0,-99.99,,,-99.99,,2013-01-29 15:53:00,
2013-01-29 08:03:00,32.0,-99.9,30.21,WNW,290,3.0,12.0,0,-99.99,,,-99.99,,2013-01-29 16:03:00,
2013-01-29 08:13:00,32.0,-99.9,30.22,NW,320,2.0,7.0,0,-99.99,,,-99.99,,2013-01-29 16:13:00,
2013-01-29 08:23:00,32.0,-99.9,30.23,WNW,290,5.0,7.0,0,-99.99,,,-99.99,,2013-01-29 16:23:00,
2013-01-29 08:33:00,32.0,-99.9,30.23,WNW,290,5.0,7.0,0,-99.99,,,-99.99,,2013-01-29 16:33:00,
2013-01-29 08:43:00,32.0,-99.9,30.24,WNW,300,2.0,6.0,0,-99.99,,,-99.99,,2013-01-29 16:43:00,
2013-01-29 08:53:00,32.0,-99.9,30.24,WNW,300,2.0,6.0,0,-99.99,,,-99.99,,2013-01-29 16:53:00,
2013-01-29 09:03:00,32.0,-99.9,30.24,NNW,330,2.0,8.0,0,-99.99,,,-99.99,,2013-01-29 17:03:00,
2013-01-29 09:12:00,32.0,-99.9,30.25,NNW,335,2.0,8.0,0,-99.99,,,-99.99,,2013-01-29 17:12:00,
2013-01-29 09:22:00,33.0,-99.9,30.25,NW,315,1.0,6.0,0,-99.99,,,-99.99,,2013-01-29 17:22:00,
2013-01-29 09:33:00,33.0,-99.9,30.25,NW,315,1.0,6.0,0,-99.99,,,-99.99,,2013-01-29 17:33:00,
2013-01-29 09:42:00,33.0,-99.9,30.25,NW,310,3.0,8.0,0,-99.99,,,-99.99,,2013-01-29 17:42:00,
2013-01-29 09:53:00,33.0,-99.9,30.25,NW,310,3.0,8.0,0,-99.99,,,-99.99,,2013-01-29 17:53:00,
2013-01-29 10:05:00,33.0,-99.9,30.25,NW,310,2.0,7.0,0,-99.99,,,-99.99,,2013-01-29 18:05:00,
2013-01-29 10:13:00,33.0,-99.9,30.25,NW,310,2.0,7.0,0,-99.99,,,-99.99,,2013-01-29 18:13:00,
2013-01-29 10:22:00,32.0,-99.9,30.27,WSW,250,0.0,2.0,0,-99.99,,,-99.99,,2013-01-29 18:22:00,
2013-01-29 10:33:00,32.0,-99.9,30.27,WSW,250,0.0,2.0,0,-99.99,,,-99.99,,2013-01-29 18:33:00,
2013-01-29 10:42:00,33.0,-99.9,30.28,ENE,65,1.0,1.0,0,-99.99,,,-99.99,,2013-01-29 18:42:00,
2013-01-29 10:52:00,33.0,-99.9,30.28,ENE,65,1.0,1.0,0,-99.99,,,-99.99,,2013-01-29 18:52:00,
2013-01-29 11:03:00,33.0,-99.9,30.29,East,85,1.0,2.0,0,-99.99,,,-99.99,,2013-01-29 19:03:00,
2013-01-29 11:12:00,34.0,-99.9,30.30,North,10,1.0,2.0,0,-99.99,,,-99.99,,2013-01-29 19:12:00,
2013-01-29 11:23:00,34.0,-99.9,30.30,NW,320,2.0,3.0,0,-99.99,,,-99.99,,2013-01-29 19:23:00,
2013-01-29 11:33:00,34.0,-99.9,30.30,NW,320,2.0,3.0,0,-99.99,,,-99.99,,2013-01-29 19:33:00,
2013-01-29 11:42:00,35.0,-99.9,30.30,WNW,285,2.0,5.0,0,-99.99,,,-99.99,,2013-01-29 19:42:00,
2013-01-29 11:52:00,35.0,-99.9,30.30,WNW,285,2.0,5.0,0,-99.99,,,-99.99,,2013-01-29 19:52:00,
2013-01-29 12:03:00,35.0,-99.9,30.30,NW,310,3.0,8.0,0,-99.99,,,-99.99,,2013-01-29 20:03:00,
2013-01-29 12:13:00,36.0,-99.9,30.31,WNW,285,3.0,9.0,0,-99.99,,,-99.99,,2013-01-29 20:13:00,
2013-01-29 12:23:00,36.0,-99.9,30.31,NW,325,2.0,9.0,0,-99.99,,,-99.99,,2013-01-29 20:23:00,
2013-01-29 12:33:00,36.0,-99.9,30.31,NW,325,2.0,9.0,0,-99.99,,,-99.99,,2013-01-29 20:33:00,
2013-01-29 12:43:00,36.0,-99.9,30.31,NW,315,2.0,6.0,0,-99.99,,,-99.99,,2013-01-29 20:43:00,
2013-01-29 12:54:00,36.0,-99.9,30.31,NW,315,2.0,6.0,0,-99.99,,,-99.99,,2013-01-29 20:54:00,
2013-01-29 13:03:00,36.0,-99.9,30.31,NW,320,2.0,5.0,0,-99.99,,,-99.99,,2013-01-29 21:03:00,
2013-01-29 13:13:00,37.0,-99.9,30.31,NNW,335,2.0,7.0,0,-99.99,,,-99.99,,2013-01-29 21:13:00,
2013-01-29 13:22:00,36.0,-99.9,30.31,North,350,3.0,6.0,0,-99.99,,,-99.99,,2013-01-29 21:22:00,
2013-01-29 13:34:00,36.0,-99.9,30.31,North,350,3.0,6.0,0,-99.99,,,-99.99,,2013-01-29 21:34:00,
2013-01-29 13:42:00,36.0,-99.9,30.32,NW,320,2.0,7.0,0,-99.99,,,-99.99,,2013-01-29 21:42:00,
2013-01-29 13:53:00,36.0,-99.9,30.32,NW,320,2.0,7.0,0,-99.99,,,-99.99,,2013-01-29 21:53:00,